Location: Babice
(50.3480°N, 22.9363°E)
Time: 12:51:42
(UTC+00:00)

MOZ.5/SAFIR/RUBIN 5/SL-8 - Pass Details

Date: 14 July 2020
Orbit: 678 x 705 km, 98.1° (Epoch: 07 August)

Event Time Altitude Azimuth Distance (km) Brightness Sun altitude
Exits shadow 00:25:51 21° 202° (SSW) 1,536 4.9 -13.9°
Maximum altitude 00:28:34 42° 262° (W) 1,003 4.3 -13.7°
Drops below altitude 10° 00:33:08 10° 334° (NNW) 2,187 6.9 -13.4°
Sets 00:35:31 0° 341° (NNW) 3,112 7.8 -13.2°
